ROU2055 CYYT-CYYZ

Flight info

Callsign ROU2055
Flight time N/A
Altitude 36000
Route TEXED DCT TAGRA DCT MIILS/N0449F380 DCT TUKIR RAGID6
Aircraft A319/M-SDE3FGHIRWY/LB1

Departure

Time 2026-04-29 18:01
Airport St. John's International Airport (CYYT)

Arrival

Time N/A
Airport Toronto Pearson International Airport (CYYZ)
Time Latitude Longitude Altitude Speed Heading
2026-04-29 17:57 47.61694 -52.74362 479 ft 13 kts 319°
2026-04-29 17:57 47.61769 -52.74457 480 ft 15 kts 319°
2026-04-29 17:57 47.61855 -52.74567 481 ft 18 kts 319°
2026-04-29 17:58 47.61940 -52.74678 482 ft 15 kts 319°
2026-04-29 17:58 47.62001 -52.74753 483 ft 8 kts 327°
2026-04-29 17:58 47.62058 -52.74730 482 ft 11 kts 52°
2026-04-29 17:58 47.62110 -52.74628 482 ft 11 kts 40°
2026-04-29 17:59 47.62172 -52.74651 485 ft 12 kts 320°
2026-04-29 17:59 47.62244 -52.74742 486 ft 15 kts 319°
2026-04-29 17:59 47.62331 -52.74855 487 ft 19 kts 319°
2026-04-29 17:59 47.62438 -52.74988 485 ft 19 kts 320°
2026-04-29 18:00 47.62502 -52.75090 483 ft 14 kts 301°
2026-04-29 18:00 47.62530 -52.75199 479 ft 8 kts 296°
2026-04-29 18:00 47.62568 -52.75182 481 ft 7 kts 79°
2026-04-29 18:00 47.62537 -52.75118 479 ft 0 kts 139°
2026-04-29 18:01 47.62536 -52.75117 479 ft 1 kts 139°
2026-04-29 18:01 47.62464 -52.75032 479 ft 54 kts 142°
2026-04-29 18:01 47.61865 -52.74259 500 ft 164 kts 139°
2026-04-29 18:01 47.60937 -52.73056 1184 ft 189 kts 139°
2026-04-29 18:02 47.59941 -52.71774 2363 ft 198 kts 139°
2026-04-29 18:02 47.58757 -52.70526 3312 ft 222 kts 155°
2026-04-29 18:02 47.57148 -52.70047 4291 ft 252 kts 182°
2026-04-29 18:02 47.55429 -52.70778 5665 ft 266 kts 210°
2026-04-29 18:03 47.54073 -52.72677 7247 ft 274 kts 238°
2026-04-29 18:03 47.53489 -52.75365 8821 ft 281 kts 266°
2026-04-29 18:03 47.53478 -52.78305 10297 ft 295 kts 271°
2026-04-29 18:03 47.53530 -52.81475 11363 ft 318 kts 272°
2026-04-29 18:04 47.53600 -52.84796 12692 ft 328 kts 272°
2026-04-29 18:04 47.53668 -52.88162 13849 ft 335 kts 271°
2026-04-29 18:04 47.53730 -52.91637 14873 ft 341 kts 271°
2026-04-29 18:04 47.53782 -52.95179 15875 ft 346 kts 271°
2026-04-29 18:05 47.53825 -52.98766 16849 ft 351 kts 271°
2026-04-29 18:05 47.53863 -53.02409 17784 ft 357 kts 271°
2026-04-29 18:05 47.53901 -53.06091 18690 ft 362 kts 271°
2026-04-29 18:05 47.53938 -53.09848 19577 ft 367 kts 271°
2026-04-29 18:06 47.53976 -53.13648 20441 ft 372 kts 271°
2026-04-29 18:06 47.54016 -53.17496 21280 ft 376 kts 271°
2026-04-29 18:06 47.54054 -53.21342 22082 ft 381 kts 271°
2026-04-29 18:06 47.54091 -53.25288 22860 ft 386 kts 271°
2026-04-29 18:07 47.54127 -53.29285 23626 ft 391 kts 271°
2026-04-29 18:07 47.54164 -53.33331 24364 ft 395 kts 271°
2026-04-29 18:07 47.54202 -53.37423 25058 ft 400 kts 271°
2026-04-29 18:07 47.54240 -53.41561 25722 ft 404 kts 271°
2026-04-29 18:08 47.54275 -53.45742 26367 ft 408 kts 270°
2026-04-29 18:08 47.54305 -53.49967 26989 ft 412 kts 270°
2026-04-29 18:08 47.54314 -53.51342 27184 ft 414 kts 270°